Weather History for KTCM - October, 2011

Change the Weather History Date:

Friday, October 14, 2011

  Actual Average (KTIW) Record (KTIW)
Temperature  
Mean Temperature 52 °F -  
Max Temperature 58 °F 57 °F - (-1)
Min Temperature 45 °F 45 °F - (-1)
Degree Days  
Heating Degree Days 12    
Growing Degree Days 2 (Base 50)    
Moisture  
Dew Point 47 °F    
Average Humidity 87    
Maximum Humidity 100    
Minimum Humidity 70    
Precipitation  
Precipitation 0.02 in - - ()
Sea Level Pressure  
Sea Level Pressure 30.03 in    
Wind  
Wind Speed 3 mph (NNE)    
Max Wind Speed 8 mph    
Max Gust Speed -    
Visibility 10 miles    
Events Rain    
Averages and records for this station are not official NWS values.
T = Trace of Precipitation, MM = Missing Value Source: NWS Daily Summary

Daily Weather History Graph

Daily Weather History Graph

Search for Another Location

Airport or City:

Trip Planner

Search our weather history database for the weather conditions in past years. The results will help you decide how hot, cold, wet, or windy it might be!

Date:

Astronomy

Oct. 14, 2011 Rise Set
Actual Time 7:26 AM PDT 6:24 PM PDT
Civil Twilight 6:55 AM PDT 6:55 PM PDT
Nautical Twilight 6:20 AM PDT 7:30 PM PDT
Astronomical Twilight 5:44 AM PDT 8:05 PM PDT
Moon 7:26 PM PDT (10/14) 10:14 AM PDT (10/14)
Length of Visible Light 11h 59m
Length of Day
10h 58m
Waning Gibbous, 94% of the Moon is Illuminated
Oct 14
Waning Gibbous
Oct 19
Last Quarter
Oct 26
New
Nov 2
First Quarter
Nov 10
Full

Hourly Weather History & Observations

Time (PDT) Temp. Dew Point Humidity Pressure Visibility Wind Dir Wind Speed Gust Speed Precip Events Conditions
12:58 AM 50.0 °F 46.0 °F 86% 30.09 in 10.0 mi NNE 1.2 mph - N/A   Overcast
1:18 AM 50.0 °F 46.4 °F 87% 30.03 in 10.0 mi NE 3.5 mph - N/A   Overcast
1:28 AM 50.0 °F 46.4 °F 87% 30.02 in 10.0 mi NNE 1.2 mph - N/A   Overcast
1:58 AM 49.8 °F 45.9 °F 86% 30.08 in 10.0 mi NNE 4.6 mph - N/A   Overcast
2:58 AM 49.5 °F 45.7 °F 87% 30.06 in 10.0 mi NE 1.2 mph - N/A   Overcast
3:58 AM 49.3 °F 45.9 °F 88% 30.06 in 10.0 mi North - - N/A   Overcast
4:29 AM 48.2 °F 46.4 °F 93% 30.01 in 10.0 mi NNE 1.2 mph - N/A Rain Light Rain
4:58 AM 48.7 °F 46.6 °F 92% 30.06 in 10.0 mi Calm Calm - 0.00 in Rain Light Rain
5:59 AM 48.2 °F 46.4 °F 93% 30.05 in 10.0 mi NNE 2.3 mph - 0.00 in Rain Light Rain
6:04 AM 48.2 °F 46.4 °F 93% 30.00 in 10.0 mi NE 3.5 mph - N/A Rain Light Rain
6:09 AM 48.2 °F 46.4 °F 93% 30.00 in 10.0 mi NNE 2.3 mph - N/A Rain Light Rain
6:58 AM 48.7 °F 47.1 °F 94% 30.05 in 10.0 mi Calm Calm - 0.01 in Rain Light Rain
7:14 AM 48.2 °F 46.4 °F 93% 29.99 in 10.0 mi Calm Calm - N/A   Overcast
7:23 AM 48.2 °F 46.4 °F 93% 29.99 in 10.0 mi NNE 2.3 mph - N/A   Light Drizzle
7:37 AM 48.2 °F 46.4 °F 93% 30.00 in 10.0 mi Calm Calm - N/A   Overcast
7:58 AM 48.9 °F 47.3 °F 94% 30.05 in 9.0 mi Calm Calm - 0.00 in   Overcast
8:24 AM 48.2 °F 48.2 °F 100% 30.01 in 9.0 mi Calm Calm - N/A Rain Light Rain
8:58 AM 50.0 °F 48.4 °F 94% 30.05 in 9.0 mi Variable 1.2 mph - 0.01 in Rain Light Rain
9:02 AM 50.0 °F 48.2 °F 94% 30.00 in 10.0 mi NNE 1.2 mph - N/A   Mostly Cloudy
9:58 AM 50.4 °F 48.4 °F 93% 30.07 in 10.0 mi NNE 2.3 mph - 0.00 in   Overcast
10:23 AM 50.0 °F 48.2 °F 94% 30.01 in 10.0 mi Calm Calm - N/A   Overcast
10:33 AM 50.0 °F 48.2 °F 94% 30.02 in 10.0 mi NE 3.5 mph - N/A   Overcast
10:38 AM 50.0 °F 48.2 °F 94% 30.02 in 10.0 mi Variable 2.3 mph - N/A   Overcast
10:48 AM 51.8 °F 48.2 °F 88% 30.02 in 10.0 mi North 3.5 mph - N/A   Overcast
10:58 AM 50.9 °F 47.8 °F 89% 30.06 in 10.0 mi North 4.6 mph - N/A   Overcast
11:18 AM 51.8 °F 48.2 °F 88% 30.01 in 10.0 mi NNE 5.8 mph - N/A   Overcast
11:43 AM 51.8 °F 48.2 °F 88% 30.01 in 10.0 mi North 6.9 mph - N/A   Overcast
11:53 AM 51.8 °F 48.2 °F 88% 30.00 in 10.0 mi Variable 6.9 mph - N/A   Overcast
11:58 AM 52.5 °F 48.2 °F 85% 30.06 in 10.0 mi NE 3.5 mph - N/A   Overcast
12:31 PM 53.6 °F 48.2 °F 82% 30.01 in 10.0 mi NNE 4.6 mph - N/A   Overcast
12:39 PM 53.6 °F 48.2 °F 82% 30.01 in 10.0 mi North 6.9 mph - N/A   Overcast
12:47 PM 53.6 °F 48.2 °F 82% 30.00 in 10.0 mi NNE 6.9 mph - N/A   Overcast
12:58 PM 53.6 °F 47.8 °F 81% 30.04 in 10.0 mi NNE 6.9 mph - N/A   Overcast
1:19 PM 53.6 °F 48.2 °F 82% 30.01 in 10.0 mi NNE 8.1 mph - N/A   Overcast
1:21 PM 55.4 °F 48.2 °F 77% 30.01 in 10.0 mi NNE 5.8 mph - N/A   Mostly Cloudy
1:58 PM 55.0 °F 47.3 °F 75% 30.04 in 10.0 mi North 5.8 mph - N/A   Overcast
2:15 PM 55.4 °F 48.2 °F 77% 30.00 in 10.0 mi NNE 6.9 mph - N/A Rain Light Rain
2:17 PM 55.4 °F 48.2 °F 77% 29.99 in 10.0 mi NNE 4.6 mph - N/A   Scattered Clouds
2:58 PM 56.7 °F 47.5 °F 71% 30.00 in 10.0 mi Variable 3.5 mph - 0.00 in   Clear
3:58 PM 57.0 °F 47.3 °F 70% 30.00 in 10.0 mi NNE 5.8 mph - N/A   Overcast
4:58 PM 56.7 °F 47.5 °F 71% 29.99 in 10.0 mi NE 4.6 mph - 0.00 in   Overcast
5:58 PM 54.5 °F 47.3 °F 77% 30.02 in 10.0 mi NE 3.5 mph - N/A   Mostly Cloudy
6:58 PM 52.7 °F 46.0 °F 78% 30.03 in 10.0 mi NNE 3.5 mph - N/A   Clear
7:58 PM 51.3 °F 46.2 °F 83% 30.03 in 10.0 mi NNE 4.6 mph - N/A   Partly Cloudy
8:58 PM 50.5 °F 45.9 °F 84% 30.03 in 10.0 mi North - - N/A   Clear
9:58 PM 49.5 °F 45.5 °F 86% 30.04 in 10.0 mi NNE 3.5 mph - N/A   Clear
10:58 PM 48.7 °F 45.1 °F 87% 30.06 in 10.0 mi North - - N/A   Clear
11:58 PM 45.9 °F 44.8 °F 96% 30.06 in 10.0 mi North - - N/A   Clear